When you browse on this site, cookies collect data to enhance your experience and personalize the content and advertising you see.
Visit our Privacy Policy to learn more. By continuing to use the site, you agree to this use of cookies and data.
  • In Portugal
  • List of Countries
  • For 7 days
  • Water Temperature
  • Weather Map
  • Weather Widgets
  • user-avatar
    Login

    Hourly Weather Lukowica

    Today, 24 January, Friday

    Time Temperature Precipitation Wind Pressure Humidity
    00:00 -1°C° 0 mm 1 mps 731 mmHg 78%
    01:00 -1°C° 0 mm 1 mps 730 mmHg 75%
    02:00 -1°C° 0 mm 1 mps 730 mmHg 74%
    03:00 -1°C° 0 mm 1 mps 730 mmHg 72%
    04:00 -4°C° 0 mm 2 mps 729 mmHg 71%
    05:00 -4°C° 0 mm 2 mps 729 mmHg 70%
    06:00 -4°C° 0 mm 2 mps 729 mmHg 69%
    07:00 -4°C° 0 mm 2 mps 728 mmHg 68%
    08:00 -3°C° 0 mm 2 mps 729 mmHg 66%
    09:00 -1°C° 0 mm 2 mps 729 mmHg 63%
    10:00 +2°C° 0 mm 1 mps 729 mmHg 60%
    11:00 +2°C° 0 mm 1 mps 728 mmHg 60%
    12:00 +3°C° 0 mm 1 mps 728 mmHg 59%
    13:00 +4°C° 0 mm 1 mps 727 mmHg 58%
    14:00 +3°C° 0 mm 1 mps 727 mmHg 63%
    15:00 +2°C° 0 mm 1 mps 727 mmHg 68%
    16:00 0°C° 0 mm 1 mps 726 mmHg 73%
    17:00 0°C° 0 mm 1 mps 726 mmHg 74%
    18:00 -1°C° 0 mm 1 mps 726 mmHg 75%
    19:00 -1°C° 0 mm 1 mps 726 mmHg 76%
    20:00 -2°C° 0 mm 1 mps 726 mmHg 76%
    21:00 -2°C° 0 mm 1 mps 726 mmHg 76%
    22:00 -2°C° 0 mm 1 mps 726 mmHg 76%
    23:00 -2°C° 0 mm 1 mps 726 mmHg 76%

    Tomorrow, 25 January, Saturday

    Time Temperature Precipitation Wind Pressure Humidity
    00:00 -2°C° 0 mm 1 mps 725 mmHg 76%
    01:00 -2°C° 0 mm 1 mps 725 mmHg 76%
    02:00 -2°C° 0 mm 1 mps 725 mmHg 76%
    03:00 -2°C° 0 mm 1 mps 725 mmHg 76%
    04:00 -2°C° 0 mm 1 mps 725 mmHg 76%
    05:00 -2°C° 0 mm 1 mps 725 mmHg 76%
    06:00 -2°C° 0 mm 1 mps 725 mmHg 76%
    07:00 -2°C° 0 mm 1 mps 725 mmHg 76%
    08:00 -1°C° 0 mm 1 mps 725 mmHg 72%
    09:00 0°C° 0 mm 1 mps 726 mmHg 68%
    10:00 +2°C° 0 mm 1 mps 726 mmHg 64%
    11:00 +3°C° 0 mm 1 mps 726 mmHg 62%
    12:00 +4°C° 0 mm 1 mps 726 mmHg 61%
    13:00 +4°C° 0 mm 1 mps 726 mmHg 59%
    14:00 +3°C° 0 mm 1 mps 725 mmHg 65%
    15:00 +2°C° 0 mm 1 mps 725 mmHg 70%
    16:00 +1°C° 0 mm 1 mps 725 mmHg 76%
    17:00 +1°C° 0 mm 1 mps 725 mmHg 78%
    18:00 0°C° 0 mm 1 mps 725 mmHg 80%
    19:00 -1°C° 0 mm 1 mps 725 mmHg 81%
    20:00 -1°C° 0 mm 1 mps 726 mmHg 81%
    21:00 -1°C° 0 mm 1 mps 726 mmHg 81%
    22:00 -1°C° 0 mm 1 mps 726 mmHg 81%
    23:00 -1°C° 0 mm 1 mps 726 mmHg 80%

    Day after tomorrow, 26 January, Sunday

    Time Temperature Precipitation Wind Pressure Humidity
    00:00 -1°C° 0 mm 1 mps 726 mmHg 80%
    01:00 -1°C° 0 mm 1 mps 725 mmHg 79%
    02:00 -1°C° 0 mm 1 mps 725 mmHg 79%
    03:00 -1°C° 0 mm 1 mps 725 mmHg 78%
    04:00 -1°C° 0 mm 1 mps 725 mmHg 78%
    05:00 -1°C° 0 mm 1 mps 725 mmHg 77%
    06:00 -1°C° 0 mm 1 mps 725 mmHg 77%
    07:00 -1°C° 0 mm 1 mps 725 mmHg 77%
    08:00 0°C° 0 mm 1 mps 725 mmHg 74%
    09:00 +1°C° 0 mm 1 mps 726 mmHg 71%
    10:00 +2°C° 0 mm 1 mps 726 mmHg 68%
    11:00 +3°C° 0 mm 1 mps 725 mmHg 67%
    12:00 +3°C° 0 mm 1 mps 725 mmHg 66%
    13:00 +4°C° 0 mm 1 mps 725 mmHg 65%
    14:00 +3°C° 0 mm 1 mps 725 mmHg 69%
    15:00 +2°C° 0 mm 1 mps 724 mmHg 74%
    16:00 +1°C° 0 mm 1 mps 724 mmHg 78%
    17:00 +1°C° 0 mm 1 mps 724 mmHg 80%
    18:00 +1°C° 0 mm 1 mps 724 mmHg 82%
    19:00 0°C° 0 mm 1 mps 724 mmHg 83%
    20:00 +1°C° 0 mm 1 mps 724 mmHg 84%
    21:00 +1°C° 0 mm 1 mps 724 mmHg 84%
    22:00 +1°C° 0 mm 1 mps 724 mmHg 85%
    23:00 +1°C° 0 mm 1 mps 724 mmHg 85%

    27 January, Monday

    Time Temperature Precipitation Wind Pressure Humidity
    00:00 +1°C° 0 mm 1 mps 723 mmHg 86%
    01:00 +1°C° 0 mm 1 mps 723 mmHg 86%
    02:00 +1°C° 0 mm 1 mps 723 mmHg 86%
    03:00 +1°C° 0 mm 1 mps 723 mmHg 87%
    04:00 +1°C° 0 mm 1 mps 722 mmHg 87%
    05:00 +1°C° 0 mm 1 mps 722 mmHg 87%
    06:00 +1°C° 0 mm 1 mps 722 mmHg 86%
    07:00 +2°C° 0 mm 1 mps 722 mmHg 86%
    08:00 +2°C° 0 mm 1 mps 722 mmHg 84%
    09:00 +3°C° 0 mm 1 mps 722 mmHg 82%
    10:00 +4°C° 0 mm 1 mps 723 mmHg 79%
    11:00 +4°C° 0 mm 1 mps 722 mmHg 78%
    12:00 +5°C° 0 mm 1 mps 722 mmHg 76%
    13:00 +5°C° 0 mm 0 mps 722 mmHg 74%
    14:00 +5°C° 0 mm 1 mps 722 mmHg 79%
    15:00 +4°C° 0 mm 1 mps 721 mmHg 83%
    16:00 +3°C° 0 mm 1 mps 721 mmHg 88%
    17:00 +2°C° 0 mm 1 mps 721 mmHg 88%
    18:00 +2°C° 0 mm 1 mps 721 mmHg 89%
    19:00 +1°C° 0 mm 1 mps 721 mmHg 89%
    20:00 +1°C° 0 mm 1 mps 721 mmHg 89%
    21:00 -1°C° 0 mm 2 mps 721 mmHg 88%
    22:00 -1°C° 0 mm 2 mps 721 mmHg 88%
    23:00 -1°C° 0 mm 2 mps 720 mmHg 88%

    28 January, Tuesday

    Time Temperature Precipitation Wind Pressure Humidity
    00:00 -1°C° 0 mm 2 mps 720 mmHg 87%
    01:00 -1°C° 0 mm 2 mps 719 mmHg 87%
    02:00 -1°C° 0 mm 2 mps 719 mmHg 88%
    03:00 -2°C° 0 mm 2 mps 718 mmHg 88%
    04:00 -2°C° 0 mm 2 mps 718 mmHg 89%
    05:00 -2°C° 0 mm 3 mps 717 mmHg 89%
    06:00 -1°C° 0 mm 3 mps 717 mmHg 89%
    07:00 -1°C° 0 mm 3 mps 716 mmHg 89%
    08:00 -1°C° 0 mm 4 mps 716 mmHg 86%
    09:00 -1°C° 0 mm 4 mps 715 mmHg 83%
    10:00 0°C° 0 mm 5 mps 715 mmHg 80%
    11:00 +1°C° 0 mm 5 mps 714 mmHg 79%
    12:00 +3°C° 0 mm 4 mps 713 mmHg 78%
    13:00 +3°C° 0 mm 4 mps 713 mmHg 77%
    14:00 +3°C° 0.1 mm 4 mps 712 mmHg 81%
    15:00 +2°C° 0.1 mm 3 mps 712 mmHg 85%
    16:00 +2°C° 0.1 mm 3 mps 712 mmHg 88%
    17:00 +1°C° 0.1 mm 3 mps 712 mmHg 89%
    18:00 +1°C° 0.1 mm 3 mps 712 mmHg 90%
    19:00 +2°C° 0.1 mm 2 mps 712 mmHg 90%
    20:00 +2°C° 0 mm 2 mps 712 mmHg 89%
    21:00 +2°C° 0 mm 2 mps 713 mmHg 88%
    22:00 +2°C° 0 mm 2 mps 713 mmHg 87%
    23:00 +1°C° 0 mm 3 mps 713 mmHg 85%

    29 January, Wednesday

    Time Temperature Precipitation Wind Pressure Humidity
    00:00 +1°C° 0 mm 3 mps 713 mmHg 82%
    01:00 0°C° 0 mm 4 mps 713 mmHg 80%
    02:00 0°C° 0 mm 4 mps 713 mmHg 79%
    03:00 -1°C° 0 mm 4 mps 714 mmHg 78%
    04:00 -1°C° 0 mm 5 mps 714 mmHg 78%
    05:00 -2°C° 0 mm 4 mps 714 mmHg 78%
    06:00 -1°C° 0 mm 3 mps 714 mmHg 78%
    07:00 -2°C° 0 mm 2 mps 714 mmHg 79%
    08:00 -1°C° 0 mm 3 mps 714 mmHg 73%
    09:00 0°C° 0 mm 4 mps 714 mmHg 67%
    10:00 +1°C° 0 mm 4 mps 713 mmHg 61%
    11:00 +2°C° 0 mm 5 mps 713 mmHg 62%
    12:00 +2°C° 0 mm 5 mps 713 mmHg 64%
    13:00 +3°C° 0 mm 6 mps 712 mmHg 65%
    14:00 +2°C° 0.2 mm 6 mps 712 mmHg 70%
    15:00 +1°C° 0.2 mm 5 mps 713 mmHg 74%
    16:00 0°C° 0.2 mm 5 mps 713 mmHg 79%
    17:00 0°C° 0.1 mm 4 mps 713 mmHg 78%
    18:00 -1°C° 0.1 mm 4 mps 714 mmHg 77%
    19:00 -2°C° 0.1 mm 4 mps 714 mmHg 76%
    20:00 -2°C° 0 mm 4 mps 715 mmHg 77%
    21:00 -1°C° 0 mm 3 mps 715 mmHg 78%
    22:00 -2°C° 0 mm 3 mps 715 mmHg 80%
    23:00 -2°C° 0 mm 3 mps 715 mmHg 80%
    Show more